Погода в Нозовке

Погода в Нозовке : погода сейчас, прогноз погоды и архив. Всё, что Вы хотите узнать о погоде в Нозовке!

Поиск расширенной информации на нашем сайте:

Другие новости

Новости СМИ2

Главная страница сайта

Новости сайта

03.07.2017

Напоминаем, что на нашем специализированном сайте Метеоцентр.Азия вы можете получить высокодетализированные автоматические прогнозы погоды по пунктам России, СНГ и мира в авиационном формате (включающие направление и скорость ветра, видимость, явления погоды, количество и форму облачности, нижнюю и верхнюю границу облачности).


Погода в Нозовке - сегодня

Время (UTC), дата Ветер
(°,м/с) 
Видим.   Явления Облачность Т
(°С)
Тd
(°С)
f(%) Тe
(°С)
Pmin
(гПа)
dP
(гПа)
Po
(мм)
O2
(г/м3)
Тmin Tmax R s Состояние
почвы
15 17.10.17 220 (ЮЗ) 10 км  слаб. дождь  10/10 300 м 
[Ns]
+8.7 +7.5 92 +10  1002.8  -0.5  740  288    +12.1     
18 17.10.17 240 (ЮЗ) 20000 м  {дождь}  10/10 300 м 
[Sc]
+8.3 +7.1 92 +8  1002.1  -0.8  740  288           
21 17.10.17 250 (З) 20000 м    10/10 600 м 
[Sc]
+6.2 +4.4 88 +5  1002.6  0.6  740  291           
00 18.10.17 260 (З) 20000 м    10/10 600 м 
[Sc]
+4.5 +2 84 +4  1003.6  0.8  741  293           
03 18.10.17 250 (З) 20000 м    6/6 600 м 
[Sc]
+4.4 +1.6 82 +3  1004.6  741  294  +4.1      мокрая 
06 18.10.17 250 (З) 20000 м    8/6 600 м средняя 
[Sc|Ac und]
+5.9 +2.5 79 +4  1004.9  0.4  742  292           
09 18.10.17 240 (ЮЗ) 4{10}  20000 м  {ливн. осадки}  9/8 600 м кучево-дожд., средняя 
[Cb cap|Ac und]
+7.1 +2.7 74 +6  1004.3  -0.6  741  291           
12 18.10.17 210 (ЮЗ) 20000 м  {ливн. осадки}  8/6 600 м средняя 
[Sc|Ac und]
+7.1 +1.9 69 +6  1003.2  -1  741  291           
15 18.10.17 210 (ЮЗ) 20000 м    9/8 600 м средняя 
[Sc|Ac und]
+6.3 +1.9 73 +5  1002.4  -0.9  740  291    +7.5  0.0     
18 18.10.17 190 (Ю) 20000 м    9/9 600 м 
[Sc]
+6.2 +2.4 77 +5  1000.4  -1.9  738  291           
21 18.10.17 210 (ЮЗ) 20000 м    10/10 600 м 
[Sc]
+5.8 +2.8 81 +6  998.7  -1.9  737  290           
00 19.10.17 190 (Ю) 10 км  слаб. дождь  10/10 300 м 
[Ns]
+5.4 +4.1 91 +5  997.6  -1.1  736  290           
03 19.10.17 190 (Ю) 10 км  слаб. дождь  10/10 300 м 
[Ns]
+6.4 +5.3 93 +5  995.8  -1.7  735  288  +5.2    0.7    влажная 
06 19.10.17 210 (ЮЗ) 4000 м  слаб. дождь  10/10 300 м 
[Ns]
+8.6 +6.9 89 +7  993.4  -2.2  733  285           
09 19.10.17 240 (ЮЗ) 6-10{17}  4000 м  слаб. ливневой дождь  9/8 600 м кучево-дожд., средняя 
[Cb cap|Ac und]
+7.1 +4.6 84 +5  993.7  -0.1  734  287           
12 19.10.17 250 (З) 7-14{16}  20000 м  {ливн. осадки, дождь}  8/4 600 м кучево-дожд., средняя 
[Cb cap|Ac und]
+6 +1.8 74 +3  997.1  3.3  736  290           
15 19.10.17 250 (З) 6{14}  20000 м  {ливн. осадки}  8/5 600 м кучево-дожд., средняя 
[Cb cap|Ac und]
+4.3 +1.2 80 +2  999.9  2.6  738  293    +9.2     
18 19.10.17 250 (З) 5{11}  20000 м  {ливн. осадки}  8/3 600 м кучево-дожд., средняя 
[Cb cap|Ac und]
+3.9 +0.5 78 +2  1001.4  1.4  739  293           
21 19.10.17 250 (З) 5{10}  20000 м  {ливн. осадки}  8/4 600 м кучево-дожд., средняя 
[Cb cap|Ac und]
+1.9 +0.2 88 -1  1002.4  0.9  740  296           
00 20.10.17 260 (З) 5-10{11}  20000 м  {ливн. осадки}  8/3 600 м средняя 
[Sc|Ac und]
+2.7 -0.1 82 1003.1  0.7  740  295           
03 20.10.17 260 (З) 4{11}  20000 м    10/10 600 м 
[Sc]
+2.4 -0.5 81 1004.5  1.4  741  296  +1.9    0.4    мокрая 
06 20.10.17 270 (З) 20000 м    10/10 600 м 
[Sc]
+2.8 -0.6 78 +1  1006.3  1.8  743  296           
09 20.10.17 270 (З) 20000 м  в посл. час ливневой снег  9/8 600 м кучево-дожд., средняя 
[Cb cap|Ac und]
+1.9 -1.6 78 +1  1008  1.6  744  298           
12 20.10.17 280 (З) 3{12}  20000 м  {ливн. осадки}  8/6 600 м средняя 
[Sc|Ac und]
+0.8 -8.7 49 -1  1010.9  2.8  746  301           
15 20.10.17 260 (З) 20000 м    9/3 600 м средняя 
[Sc|Ac und]
-0.5 -4.9 72 -1  1012.6  1.6  747  302    +3.8  0.3     
Время (UTC), дата Ветер
(°,м/с) 
Видим.   Явления Облачность Т
(°С)
Тd
(°С)
f(%) Тe
(°С)
Pmin
(гПа)
dP
(гПа)
Po
(мм)
O2
(г/м3)
Тmin Tmax R s Состояние
почвы

Для получения пояснительной информации подведите курсор к названию столбца.

ПОГОДА в Нозовке - архив

Всё, что Вы хотите узнать о погоде в Нозовке - удобно и подробно!

Выберите нужную дату (начиная с 1 января 2015* года) и нажмите кнопку "Найти".
Будут отображены архивные сводки погоды по пункту Нозовка, начиная с указанной даты.


Отображать данные в формате CSV (для использования в таблицах Excel)


Внимание! Наш архив погоды предназначен исключительно для личного некоммерческого использования в познавательных целях. Если Вам необходимы официальные справки о состоянии погоды (для производственных, юридических, коммерческих и т.п. целей), обращайтесь в органы Росгидромета.

*Примечание: данная дата относится к архиву по метеостанциям СССР (Россия, СНГ, Балтия).
Архив по метеостанциям Зарубежной Европы и Азии (кроме Китая) хранится 10 дней, по другим регионам земного шара (Китай, Африка, Америка, Австралия, Океания) - 1 день.

Нозовка - район местоположения метеостанции


Название, широта, долгота, высота метеостанции:
Нозовка 57.1°ш. 54.8°д. 131 м над ур. моря [Российская Федерация]

Дополнительная информация

В oтличие oт бoльшинства пoгoдных сайтoв мы публикуем пoдрoбную метеoинфoрмацию в детальнoм прoфессиoнальнoм фoрмате.

Характеристики температуры и влажнoсти вoздуха измеряются на высoте 2 м в тени вдали oт зданий и деревьев.
Скoрoсть ветра измеряется на высoте 10 м (на урoвне рoста челoвека скoрoсть ветра ниже в 1.5-2 раза). Если метеoстанция нахoдится в гoрoде или в лесу, тo скoрoсть ветра занижена на 2-4 м/с пo сравнению с oткрытым местoм. Скoрoсть ветра над акватoриями крупных рек и oзёр, а также на вершинах хoлмoв на 2-5 м/с выше, чем в oбычных услoвиях.
Атмoсфернoе давление в разных тoчках местнoсти мoжет значительнo oтличаться oт давления на метеoстанции, в зависимoсти oт услoвий рельефа (при пoдъёме на 10 м давление пoнижается примернo на 1 мм рт.ст.).